METEOR 2-17 DEB, 38542

Orbit data source: Space-Track

METEOR 2-17 DEB, 38542 is space debris in LEO originally from a launch on Sat, 30 Jan 1988 UTC launched from the Plesetsk Missile And Space Complex (PKMTR). Debris objects in space refer to the collection of defunct objects orbiting the Earth. Examples of debris include non-operational satellites, rocket bodies, and fragments generated from explosions, collisions, or faulty payload assembly.

Loading next visibility...
Identifier
38542, 1988-005AV
Orbit
LEO
Country
Flag of CISCIS
Related business
Manufacturer
Unknown
Mission
Spacecraft
Bus & Motor
Unknown
Mass
Unknown
Launch date (UTC)
1988-01-30 (38 years ago)
Launch vehicle
Unknown
Launch site
Plesetsk Missile And Space Complex (PKMTR)
Object type
Payload
Rocket body
Debris
Shape & HBR
Unknown shape, 0.1 m
Radar Cross Section
Small (<0.1 m²)

Expand to show TLE details & history
Last TLE update: 1 month ago

TLE from 1 month ago
0 METEOR 2-17 DEB
1 38542U 88005AV  25274.27189625  .00004447  00000-0  29699-2 0  9999
2 38542  82.5263 114.0787 0024658 297.1771  62.6884 14.00676648568079
Epoch: 2025-10-01T06:31Z
TLE epoch observation values (Epoch: 2025-10-01T06:31:31.835Z)
Latitude
-0.00007°
Longitude
5.94675°
Altitude
886.186 km
Speed
7.413 km/s
True Right ascension
07h 36m 18s
True Declination
0° 00' 00"
Sunlit
Object was in daylight at epoch
Visualization orbit readout
Latitude
Unknown
Longitude
Unknown
Altitude
Unknown
Speed
Unknown
Apparent Right ascension
Unknown
Apparent Declination
Unknown
Sunlit
N/A
Visualization observer readout
Local Sidereal Time
23:52:34
Azimuth
Unknown
Elevation
Unknown
Doppler factor
Unknown
Orbital elements
Apogee altitude
906.501 km
Perigee altitude
870.665 km
Semi-major axis
7,266.72 km
Eccentricity
0.00247
Inclination
82.5263°
RAAN
114.0787°
Arg. of periapsis
297.1771°
True anomaly
62.93982°
Mean anomaly
62.6884°
Eccentric anomaly
62.81407°
Mean motion
3.50377 °/min
Orbital period
102.75 mins
BSTAR
0.0029699
Loading maneuver chart data...
Computing Atmospheric mass density...
Loading historical data...
Loading historical data...
Loading historical data...
Loading historical data...
Loading historical data...
Loading historical data...
Loading historical data...

Documentation

Showing up to 5 results
|